Back to catalog

STARLINK-32478

AliveCommunicationsVLEO
NORAD 61726·PAYLOAD·🇺🇸 United States

Launched Oct 30, 2024 from Cape Canaveral Space Force Station

Loading…

Next Passes (next 24 hours)

TLE

FreshSource: CelesTrak SupGP

Epoch: Sep 14, 2026, 22:21 UTC

1 61726C 24196V   26257.93173611  .00039744  00000+0  11744-2 0  2579
2 61726  53.1575 300.0749 0001078  94.1355 213.9816 15.34366886    17

Track STARLINK-32478 in real time with AllMySat

Download on the App Store